Location: Green River State Wildlife Area
(41.6390°N, 89.5080°W)
Time: 13:38:18
(UTC-05:00)

Daily predictions for brighter satellites

Satellite Brightness Start Highest point End
(mag) Time Altitude Azimuth Time Altitude Azimuth Time Altitude Azimuth
Cosmos 2227 4.3 20:11:40 10° NNW 20:17:16 61° ENE 20:22:51 10° SE
Cosmos 1655 Rocket 4.1 20:14:46 10° S 20:20:53 57° E 20:27:04 10° NNE
Cosmos 1812 3.5 20:17:40 10° NNW 20:21:28 56° W 20:25:15 10° S
Helios 1A 4.4 20:22:20 10° ESE 20:25:34 22° ENE 20:28:49 10° NNE
Cosmos 2360 4.3 20:22:53 10° SSW 20:28:36 87° WNW 20:34:20 10° NNE
ATLAS 3B R/B 4.1 20:26:48 10° NNW 20:32:11 24° NE 20:37:23 10° E
GPS 2-05 Rocket1 3.9 20:30:09 10° WSW 20:33:07 28° S 20:35:41 12° ESE
USA 186 1.8 20:30:12 10° SSE 20:33:32 73° ENE 20:36:55 10° N
Cosmos 1602 3.8 20:30:12 10° S 20:33:56 53° E 20:37:41 10° NNE
Okean 2 Rocket 3.3 20:29:34 10° S 20:34:03 80° W 20:38:36 10° N
Meteor 1-11 Rocket 4.1 20:29:03 10° SSE 20:34:34 44° E 20:39:59 10° NNE
Envisat 3.1 20:30:09 10° SSE 20:35:08 62° ENE 20:40:10 10° N
NOSS 2-3 (D) 4.4 20:36:28 10° S 20:40:39 34° ESE 20:45:21 10° NE
USA 267 4.3 20:35:33 10° SSE 20:41:39 41° SW 20:47:49 10° WNW
Abrixas rocket 4.1 20:39:47 10° WNW 20:42:38 27° N 20:45:30 10° NE
GENESIS II 4.4 20:41:25 10° NNW 20:45:18 57° NE 20:48:25 15° SE
Resurs 1-3 4.1 20:47:02 10° S 20:51:22 63° W 20:55:45 10° NNW
Cosmos 2263 Rocket 2.7 20:46:06 10° NNW 20:51:34 44° ENE 20:55:53 16° SE
Cosmos 2322 Rocket 2.2 20:46:36 10° S 20:52:11 60° ESE 20:57:48 10° NNE
Cosmos 44 Rocket 4.0 20:52:46 10° NW 20:57:21 50° WSW 21:02:00 10° SSE
Cosmos 1939 Rocket 2.8 20:56:19 10° SSE 21:00:18 79° ENE 21:04:15 10° N
SL-16 R/B 2.1 20:57:15 10° SSW 21:02:53 74° ESE 21:08:34 10° NNE
Meteor 1-19 Rocket 4.4 20:59:54 10° NNW 21:05:48 84° W 21:11:36 10° S
Uosat 12 SS-18 rocket 4.4 21:01:11 10° SSW 21:05:56 83° ESE 21:11:50 10° NE
Cosmos 1536 2.8 21:02:34 10° S 21:06:34 60° E 21:10:36 10° NNE
ATLAS 2AS CENTAUR R/B 3.1 20:59:29 10° S 21:06:47 52° ESE 21:14:33 10° NE
Lacrosse 5 rocket 2.4 21:05:21 10° WNW 21:08:45 35° SW 21:11:32 14° S
Cosmos 1452 Rocket 4.4 21:04:11 10° SW 21:09:19 52° WNW 21:14:31 10° N
YAOGAN 6 2.4 21:08:45 19° SSE 21:11:13 74° ENE 21:14:45 10° N
Cosmos 1850 Rocket 4.0 21:06:19 10° NNW 21:11:41 79° ENE 21:15:44 18° SSE
Cosmos 1420 Rocket 4.3 21:07:21 10° SSW 21:12:30 70° WNW 21:17:41 10° NNE
NOSS 2-3 (E) 3.8 21:12:52 10° SSW 21:17:30 78° ESE 21:22:55 10° NE
Okean 1 Rocket 3.1 21:15:27 14° S 21:19:06 57° E 21:23:24 10° NNE
Helios 1B rocket 2.4 21:15:23 10° NNE 21:19:28 63° ESE 21:23:22 11° S
S3M 4.4 21:13:23 10° NNW 21:19:35 67° W 21:25:51 10° S
COSMOS 2428 4.2 21:22:18 17° E 21:22:18 17° E 21:25:02 10° ENE
Resurs 01 Rocket 3.7 21:18:54 10° SSW 21:22:39 27° W 21:26:27 10° NW
Cosmos 1607 4.1 21:16:20 10° NNW 21:22:47 67° NE 21:26:39 25° SE
Cosmos 1300 Rocket 3.5 21:19:37 10° S 21:23:56 82° W 21:28:16 10° N
Okean 1-7 Rocket 4.0 21:20:44 10° N 21:25:02 43° ENE 21:26:34 32° SE
Tiangong 1 0.5 21:23:23 10° WNW 21:26:10 87° S 21:26:23 74° ESE
Cosmos 2360 Rocket 2.4 21:20:55 10° S 21:26:14 45° ESE 21:31:35 10° NE
Cosmos 1980 Rocket 4.5 21:23:01 10° WSW 21:27:42 27° NW 21:32:24 10° N
Cosmos 2266 Rocket 3.9 21:22:04 10° S 21:28:07 87° E 21:34:11 10° N
Cosmos 2315 Rocket 4.1 21:22:00 10° N 21:28:09 57° E 21:31:52 25° SSE
BREEZE-M DEB (TANK) 2.8 21:28:48 10° W 21:31:32 35° NNW 21:32:24 23° NNE
Meteor 1-5 Rocket 4.0 21:26:16 10° S 21:31:36 80° E 21:36:55 10° NNE
Cosmos 1025 Rocket 3.1 21:27:27 10° N 21:31:39 53° E 21:32:55 38° SE
SeaSat 1 3.4 21:28:23 10° NNE 21:33:08 49° WNW 21:37:51 10° SW
Cosmos 220 Rocket 4.0 21:30:07 10° NNW 21:34:25 68° ENE 21:35:52 40° SE
Nadezhda 2 Rocket 4.5 21:31:03 18° SSE 21:35:38 59° E 21:41:45 10° NNE
SPOT 5 3.5 21:35:22 32° ESE 21:36:39 38° ENE 21:40:59 10° N
Meteor 2-4 Rocket 4.2 21:35:21 10° NNW 21:40:47 59° W 21:45:55 12° S
Lacrosse 5 1.7 21:37:14 10° SW 21:42:17 74° SE 21:47:22 10° NE
NOAA 11 4.1 21:41:12 26° SSE 21:44:24 89° ENE 21:49:56 10° NNW
BREEZE-M DEB 4.5 21:35:28 10° WNW 21:44:54 42° N 21:46:59 22° ENE
CZ-4B DEB 3.2 21:48:19 48° WSW 21:48:27 49° W 21:51:15 10° NNW
USA 245 4.0 21:47:46 41° SE 21:49:12 57° ENE 21:53:34 10° N
Okean 2 3.2 21:51:44 10° N 21:55:50 87° ENE 21:56:26 64° SSE
Atlas Centaur 2 3.6 21:49:56 10° WSW 21:56:31 29° SSW 21:58:01 27° S
Meteor 1-29 3.9 21:56:15 10° N 21:59:33 45° WNW 22:00:59 27° SW
Helios 1A 4.5 21:58:19 17° SSW 22:00:56 33° W 22:04:48 10° NNW
SAR-Lupe-4 4.2 22:02:02 47° SW 22:02:31 51° W 22:06:02 10° NNW
USA 238 DEB 3.9 21:56:49 10° NNW 22:03:53 64° NE 22:06:30 40° ESE
USA 238 3.9 21:56:55 10° NNW 22:03:59 63° NE 22:06:37 40° ESE
Cosmos 1066 Rocket 4.2 22:00:59 10° N 22:06:18 55° ENE 22:07:04 50° ESE
ERS-1 Rocket 3.4 22:06:24 33° SSW 22:08:29 59° W 22:13:28 10° NNW
MetOp-A 4.3 22:06:28 36° S 22:08:38 69° WSW 22:14:00 10° NNW
H-2A R/B 1.9 22:10:30 60° ESE 22:11:12 69° ENE 22:16:11 10° N
Cosmos 1892 Rocket 3.6 22:07:59 10° N 22:12:13 65° ENE 22:12:13 65° ENE
Landsat 7 4.3 22:13:15 44° ENE 22:13:15 44° ENE 22:17:40 10° N
Abrixas rocket 4.1 22:17:05 10° NW 22:19:36 27° N 22:19:36 27° N
Cosmos 1975 3.5 22:23:15 49° NNE 22:23:15 49° NNE 22:26:14 10° N
ATLAS 3B R/B 2.5 22:17:00 10° NW 22:23:46 88° WSW 22:25:20 56° SSE
SL-08 RB Rocket 3.7 22:23:36 68° SW 22:23:56 71° WSW 22:28:29 10° NNW
SL-8 R/B 3.9 22:22:25 10° WNW 22:27:11 63° NNE 22:27:23 62° NE
Cosmos 1544 Rocket 3.9 22:28:18 61° NNE 22:28:18 61° NNE 22:32:03 10° N
Meteor 1-12 Rocket 4.1 22:27:34 67° SSE 22:28:17 79° E 22:33:56 10° NNE
Terra 2.5 22:29:05 42° NE 22:29:05 42° NE 22:33:00 10° N
ARGOS 3.6 22:27:17 42° SSW 22:28:46 56° W 22:34:03 10° NNW
Cosmos 1241 Rocket 4.4 22:29:18 55° S 22:30:37 68° ESE 22:37:03 10° NE
Cosmos 2278 Rocket 3.4 22:30:06 10° N 22:34:57 28° NE 22:35:15 28° ENE
Cosmos 2263 Rocket 3.8 22:30:32 10° NW 22:35:13 27° WSW 22:37:35 20° SW
Cosmos 1302 Rocket 3.9 22:35:29 73° SW 22:36:00 85° WNW 22:41:19 10° NNE
Cosmos 1486 Rocket 3.8 22:31:30 10° NNW 22:36:47 90° WSW 22:36:48 89° SSW
Cosmos 2237 4.3 22:34:51 38° SW 22:37:07 77° WNW 22:42:52 10° NNE
Cosmos 1455 Rocket 3.6 22:41:14 54° N 22:41:14 54° N 22:44:45 10° N
NOSS 3-2 (C) 4.4 22:33:29 10° NNW 22:40:45 51° NE 22:42:56 41° E
Cosmos 1844 Rocket 2.6 22:37:54 10° NNW 22:43:37 77° ENE 22:43:39 77° ENE
Nadezhda 1 Rocket 3.8 22:41:27 10° N 22:47:48 79° E 22:48:14 74° SE
Cosmos 2219 Rocket 2.8 22:57:52 45° NE 22:57:52 45° NE 23:01:50 10° NNE
DMSP B5D2-2 4.2 22:52:42 10° N 22:57:49 73° WNW 22:57:49 73° WNW
ATLAS 2AS CENTAUR R/B 4.1 22:50:37 10° WSW 22:58:01 44° NW 23:05:45 10° NNE
Cosmos 1709 Rocket 4.4 23:05:19 51° ENE 23:05:19 51° ENE 23:10:23 10° NNE
COSMOS 2428 3.0 23:04:15 59° W 23:04:57 65° WNW 23:10:40 10° NNE
NOSS 3-4 (A) 4.1 23:10:01 43° ENE 23:10:01 43° ENE 23:14:23 10° NE
NOSS 3-4 (C) 4.2 23:10:10 43° ENE 23:10:10 43° ENE 23:14:29 10° NE
Cosmos 2360 Rocket 4.0 23:05:38 10° WSW 23:10:24 28° NW 23:15:12 10° N
Cosmos 1354 Rocket 4.4 23:07:27 10° NNW 23:11:50 61° NNW 23:11:50 61° NNW
CENTAUR R/B 4.0 23:07:50 10° NNW 23:15:01 39° NE 23:17:28 32° ENE
Cosmos 1818 4.0 23:15:58 57° N 23:15:58 57° N 23:20:35 10° NNE
Cosmos 1844 3.9 23:10:00 10° NNW 23:14:57 66° NW 23:14:57 66° NW
Cosmos 2333 Rocket 3.0 23:20:18 45° NNE 23:20:18 45° NNE 23:24:08 10° NNE
H-2A R/B 3.8 23:27:11 31° NNW 23:27:11 31° NNW 23:29:30 10° NNW
Lacrosse 5 3.9 23:21:24 10° W 23:25:41 27° NNW 23:30:00 10° NNE
Cosmos 2237 Rocket 3.3 23:42:17 37° NNE 23:42:17 37° NNE 23:45:36 10° NNE
H-2A R/B 4.4 23:51:08 14° W 23:51:08 14° W 23:53:35 10° WNW
